Location: Jarosław
(50.0191°N, 22.6835°E)
Time: 05:24:50
(UTC+01:00)

ISS - Pass Details

Date: 26 January 2019
Orbit: 403 x 411 km, 51.6° (Epoch: 17 February)

Event Time Altitude Azimuth Distance (km) Brightness Sun altitude
Rises 17:37:45 0° 230° (SW) 2,326 1.2 -13.6°
Reaches altitude 10° 17:39:53 10° 224° (SW) 1,470 -0.1 -13.9°
Maximum altitude 17:43:02 42° 151° (SSE) 594 -3.2 -14.4°
Enters shadow 17:44:13 29° 101° (ESE) 785 -2.9 -14.6°
